Delavan, Wisconsin, United States (53115)
Lat: 42.63N, Lon: 88.64W
Wx Zone: WIZ070
Local Info
Past Weather Observations for Today

NOTE: This archive is for the closest National Weather Service station to Delavan. Information may differ from the station used for current weather conditions.

Click here for Long-term Archive

Time Weather Temperature Dewpoint Humidity Pressure Winds Precip Visibility
10:35
Partly Cloudy
21°F / -6°C 12°F / -11°C 68% 30.12 in
(1020 mb)
SSE 11.5 mph
(SSE 19 kph)
- 10SM
10:15
Overcast
21°F / -6°C 12°F / -11°C 68% 30.15 in
(1021 mb)
SSE 10.4 mph
(SSE 17 kph)
- 10SM
09:55
Mostly Cloudy
19°F / -7°C 12°F / -11°C 73% 30.18 in
(1022 mb)
SSE 10.4 mph
(SSE 17 kph)
- 10SM
09:35
Mostly Cloudy
19°F / -7°C 14°F / -10°C 79% 30.18 in
(1022 mb)
SSE 10.4 mph
(SSE 17 kph)
- 10SM
09:15
Partly Cloudy
19°F / -7°C 14°F / -10°C 79% 30.18 in
(1022 mb)
SSE 10.4 mph
(SSE 17 kph)
- 10SM
08:55
Partly Cloudy
18°F / -8°C 14°F / -10°C 86% 30.18 in
(1022 mb)
S 9.2 mph
(S 15 kph)
- 10SM
08:35
Mostly Cloudy
18°F / -8°C 14°F / -10°C 86% 30.21 in
(1023 mb)
SSE 9.2 mph
(SSE 15 kph)
- 10SM
08:15
Partly Cloudy
18°F / -8°C 14°F / -10°C 86% 30.21 in
(1023 mb)
S 8.1 mph
(S 13 kph)
- 10SM
07:55
Overcast
Light Snow
16°F / -9°C 14°F / -10°C 93% 30.21 in
(1023 mb)
SSE 5.8 mph
(SSE 9 kph)
- 3SM
07:35
Overcast
Light Snow
16°F / -9°C 14°F / -10°C 93% 30.21 in
(1023 mb)
SSE 6.9 mph
(SSE 11 kph)
- 1 1/2SM
07:15
Overcast
Light Snow
16°F / -9°C 14°F / -10°C 93% 30.24 in
(1024 mb)
SE 5.8 mph
(SE 9 kph)
- 1SM
06:55
Overcast
Light Snow
16°F / -9°C 14°F / -10°C 93% 30.24 in
(1024 mb)
S 4.6 mph
(S 7 kph)
- 3/4SM
06:35
Overcast
Light Snow
16°F / -9°C 12°F / -11°C 86% 30.27 in
(1025 mb)
S 3.5 mph
(S 6 kph)
- 1 1/2SM
06:15
Overcast
Light Snow
16°F / -9°C 12°F / -11°C 86% 30.27 in
(1025 mb)
S 3.5 mph
(S 6 kph)
- 2 1/2SM
05:55
Overcast
16°F / -9°C 12°F / -11°C 86% 30.27 in
(1025 mb)
Calm - 10SM
05:35
Partly Cloudy
16°F / -9°C 12°F / -11°C 86% 30.27 in
(1025 mb)
SSE 6.9 mph
(SSE 11 kph)
- 10SM
05:15
Clear
14°F / -10°C 12°F / -11°C 92% 30.27 in
(1025 mb)
SSE 5.8 mph
(SSE 9 kph)
- 10SM
04:55
Partly Cloudy
14°F / -10°C 10°F / -12°C 85% 30.3 in
(1026 mb)
SSE 4.6 mph
(SSE 7 kph)
- 10SM
04:35
Mostly Cloudy
14°F / -10°C 10°F / -12°C 85% 30.3 in
(1026 mb)
SSE 4.6 mph
(SSE 7 kph)
- 10SM
04:15
Mostly Cloudy
14°F / -10°C 10°F / -12°C 85% 30.3 in
(1026 mb)
Calm - 10SM
03:55
Mostly Cloudy
12°F / -11°C 10°F / -12°C 92% 30.33 in
(1027 mb)
Calm - 10SM
03:35
Partly Cloudy
12°F / -11°C 10°F / -12°C 92% 30.33 in
(1027 mb)
Calm - 10SM
03:15
Partly Cloudy
12°F / -11°C 9°F / -13°C 85% 30.33 in
(1027 mb)
Calm - 10SM
02:55
Partly Cloudy
12°F / -11°C 9°F / -13°C 85% 30.36 in
(1028 mb)
Calm - 10SM
02:35
Mostly Cloudy
12°F / -11°C 9°F / -13°C 85% 30.36 in
(1028 mb)
Calm - 10SM
02:15
Mostly Cloudy
12°F / -11°C 9°F / -13°C 85% 30.36 in
(1028 mb)
Calm - 10SM
01:55
Mostly Cloudy
10°F / -12°C 9°F / -13°C 92% 30.33 in
(1027 mb)
SW 3.5 mph
(SW 6 kph)
- 10SM
01:35
Partly Cloudy
10°F / -12°C 9°F / -13°C 92% 30.36 in
(1028 mb)
Calm - 10SM
01:15
Clear
10°F / -12°C 7°F / -14°C 85% 30.33 in
(1027 mb)
Calm - 10SM
00:55
Clear
10°F / -12°C 7°F / -14°C 85% 30.33 in
(1027 mb)
Calm - 10SM
00:35
Clear
9°F / -13°C 7°F / -14°C 92% 30.33 in
(1027 mb)
Calm - 10SM
00:15
Clear
9°F / -13°C 7°F / -14°C 92% 30.36 in
(1028 mb)
Calm - 10SM
Time Weather Temperature Dewpoint Humidity Pressure Winds Precip Visibility


Weather for websites

WeatherForYou.com, LLC is not responsible for any damages or problems caused by this service. Current weather conditions are obtained from the closest station including government and personal stations which may have varying degrees of accuracy. Weather forecasts are derived from the NOAA NDFD. Like all things, this site belongs to Jesus Christ... He just trusts me to maintain it. If you have any questions or comments email webmaster@weatherforyou.com

Copyright © 2014, WeatherForYou.com LLC. All rights reserved.